[Iaude] MPEC K58: 2020 KV [a=0.96,e=0.17,i=23.7,H=25.3]

mpec at marsden.cfa.harvard.edu mpec at marsden.cfa.harvard.edu
Mon May 18 20:44:56 EDT 2020


M.P.E.C. 2020-K58                                  Issued 2020 May 19, 00:43 UT

     The Minor Planet Electronic Circulars contain information on unusual
         minor planets and routine data on comets.  They are published
    on behalf of Division F of the International Astronomical Union by the
          Minor Planet Center, Smithsonian Astrophysical Observatory,
                          Cambridge, MA 02138, U.S.A.

             Prepared using the Tamkin Foundation Computer Network

                              MPC at CFA.HARVARD.EDU
            URL https://www.minorplanetcenter.net/    ISSN 1523-6714

                                    2020 KV                                     


Observations:
     K20K00V* C2020 05 16.43600 17 37 03.43 +36 17 07.8          21.1 GVEK058G96
     K20K00V  C2020 05 16.44121 17 37 01.97 +36 17 02.9          21.5 GVEK058G96
     K20K00V  C2020 05 16.44642 17 37 00.36 +36 16 57.1          22.2 GVEK058G96
     K20K00V  C2020 05 16.45163 17 36 58.73 +36 16 51.9          21.3 GVEK058G96
     K20K00V  C2020 05 16.47178 17 36 52.52 +36 16 28.8          22.2 GVEK058G96
     K20K00V  C2020 05 16.47253 17 36 52.25 +36 16 28.7          22.5 GVEK058G96
     K20K00V  C2020 05 16.47328 17 36 52.05 +36 16 27.3          21.7 GVEK058G96
     K20K00V  C2020 05 16.47404 17 36 51.79 +36 16 26.2          21.5 GVEK058G96
     K20K00V  C2020 05 16.58774617 36 21.006+36 14 53.47         22.9 GVEK058F51
     K20K00V  C2020 05 16.59382717 36 19.058+36 14 46.39         21.7 GVEK058F51
     K20K00V  C2020 05 16.59900417 36 17.388+36 14 40.25         22.1 GVEK058F51
     K20K00V  C2020 05 16.60416917 36 15.763+36 14 33.98         22.3 GVEK058F51
     K20K00V  C2020 05 17.41801 17 32 17.90 +35 58 50.2          21.1 GVEK058V06
     K20K00V  C2020 05 17.42119 17 32 16.74 +35 58 46.0          21.1 GVEK058V06
     K20K00V  C2020 05 17.42436 17 32 15.45 +35 58 41.8          22.6 GVEK058V06
     K20K00V  C2020 05 17.42753 17 32 14.30 +35 58 37.5          22.3 GVEK058V06
     K20K00V  C2020 05 17.96193 17 29 21.08 +35 45 45.3          21.4 VVEK058033
     K20K00V  C2020 05 17.96499 17 29 19.93 +35 45 41.2          21.4 VVEK058033
     K20K00V  C2020 05 17.96806 17 29 18.70 +35 45 37.3          21.2 VVEK058033
     K20K00V  C2020 05 17.97124 17 29 17.47 +35 45 32.7          21.5 VVEK058033
     K20K00V  C2020 05 18.27849 17 27 29.02 +35 38 09.5          21.3 GVEK058V06
     K20K00V  C2020 05 18.28223 17 27 27.49 +35 38 04.3          21.1 GVEK058V06
     K20K00V  C2020 05 18.28597 17 27 25.93 +35 37 59.3          21.1 GVEK058V06
     K20K00V  C2020 05 18.28971 17 27 24.36 +35 37 53.9          21.1 GVEK058V06

Observer details:
033 Karl Schwarzschild Observatory, Tautenburg.  Observers S. Melnikov, C. 
   Hoegner, B. Stecklum.  Measurer B. Stecklum.  1.34-m f/3 Schmidt + CCD.
F51 Pan-STARRS 1, Haleakala.  Observers J. Bulger, K. Chambers, T. Lowe, A. 
   Schultz, M. Willman.  Measurers S. Chastel, M. Huber, Y. Ramanjooloo, R. 
   Wainscoat, R. Weryk.  1.8-m Ritchey-Chretien + CCD.
G96 Mt. Lemmon Survey.  Observer H. Groeller.  Measurers E. J. Christensen, G. 
   A. Farneth, D. C. Fuls, A. R. Gibbs, A. D. Grauer, H. Groeller, R. A. 
   Kowalski, S. M. Larson, G. J. Leonard, T. A. Pruyne, D. Rankin, R. L. Seaman,
    F. C. Shelly, K. W. Wierzchos.  1.5-m reflector + 10K CCD.
V06 Catalina Sky Survey-Kuiper.  Observer D. C. Fuls.  Measurers E. J. 
   Christensen, G. A. Farneth, D. C. Fuls, A. R. Gibbs, A. D. Grauer, H. 
   Groeller, R. A. Kowalski, S. M. Larson, G. J. Leonard, T. A. Pruyne, D. 
   Rankin, R. L. Seaman, F. C. Shelly, K. W. Wierzchos.  1.55-m reflector + CCD.

Orbital elements:
2020 KV                                                  Earth MOID = 0.0116 AU
Epoch 2020 May 31.0 TT = JDT 2459000.5                  Veres
M 260.20422              (2000.0)            P               Q
n   1.03990583     Peri.  300.65705     +0.92662104     -0.07988191
a   0.9648802      Node    66.18623     +0.27357131     +0.81358787
e   0.1698834      Incl.   23.67853     -0.25793832     +0.57592852
P   0.95           H   25.3           G   0.15           U   7
Residuals in seconds of arc
200516 G96  1.6-  0.8-    200516 F51  0.1+  0.1-    200517 033  0.1+  0.1-
200516 G96  0.3+  0.1-    200516 F51  0.1+  0.0     200517 033  0.4+  0.0
200516 G96  0.4+  0.2-    200516 F51  0.2-  0.1+    200517 033  0.2-  0.2+
200516 G96  0.2+  0.3+    200516 F51  0.0   0.0     200517 033  0.3-  0.0
200516 G96  0.4+  0.1-    200517 V06  0.8+  0.0     200518 V06  0.0   0.1-
200516 G96  0.1-  0.6+    200517 V06  0.7+  0.1+    200518 V06  0.2+  0.1-
200516 G96  0.3+  0.1+    200517 V06  0.9-  0.1+    200518 V06  0.1+  0.1+
200516 G96  0.0   0.1-    200517 V06  0.9-  0.2+    200518 V06  0.2-  0.0

Ephemeris:
2020 KV                  a,e,i = 0.96, 0.17, 24                  q = 0.8010
Date    TT    R. A. (2000) Decl.     Delta      r    Elong.  Phase     V
2020 04 19    18 02 53.8 +35 59 42   0.2779  1.1042   103.8    62.0    24.9
...
2020 05 04    18 01 55.9 +37 05 43   0.1759  1.0801   109.6    61.6    23.9
...
2020 05 12    17 51 16.7 +36 59 46   0.1192  1.0640   113.9    60.3    23.0
...
2020 05 18    17 29 05.2 +35 45 25   0.07645 1.0507   119.0    57.4    21.9
2020 05 19    17 22 37.6 +35 16 54   0.06938 1.0484   120.2    56.5    21.7
2020 05 20    17 14 45.4 +34 38 57   0.06237 1.0460   121.6    55.5    21.4
...
2020 05 26    15 11 05.1 +17 52 49   0.02418 1.0313   138.2    40.9    18.9
...
2020 06 03    08 40 37.1 -40 46 04   0.04642 1.0101    83.5    93.9    22.0
...
2020 06 18    07 10 22.5 -40 41 57   0.1506  0.9672    67.0   104.8    25.0

M. P. C. Staff               (C) Copyright 2020 MPC           M.P.E.C. 2020-K58




More information about the Iaude mailing list